Location: Lombard
(41.8800°N, 88.0080°W)
Time: 04:13:40
(UTC-05:00)

Vanguard 2 Rocket - Pass Details

Date: 24 February 2024
Orbit: 555 x 3307 km, 32.9° (Epoch: 12 April)

Event Time Altitude Azimuth Distance (km) Brightness Sun altitude
Rises 21:39:12 0° 276° (W) 6,748 12.0 -44.3°
Reaches altitude 10° 21:45:19 10° 262° (W) 6,025 11.4 -45.2°
Maximum altitude 21:57:24 20° 224° (SW) 5,388 10.7 -47.0°
Enters shadow 22:03:49 17° 201° (SSW) 5,564 10.6 -47.9°
Drops below altitude 10° 22:09:35 10° 184° (S) 6,001 - -48.7°
Sets 22:15:50 0° 170° (S) 6,703 - -49.5°
